Time,TemperatureF,DewpointF,PressureIn,WindDirection,WindDirectionDegrees,WindSpeedMPH,WindSpeedGustMPH,Humidity,HourlyPrecipIn,Conditions,Clouds,dailyrainin,SoftwareType,DateUTC
2013-06-09 00:00:00,53.2,49.1,30.14,West,277,14.0,14.0,86,0.00,,,0.00,Wunderground v.1.15,2013-06-09 07:00:00,
2013-06-09 00:05:00,53.2,49.4,30.14,West,279,14.0,15.0,87,0.00,,,0.00,Wunderground v.1.15,2013-06-09 07:05:00,
2013-06-09 00:10:00,53.2,49.1,30.14,West,271,15.0,15.0,86,0.00,,,0.00,Wunderground v.1.15,2013-06-09 07:10:00,
2013-06-09 00:15:00,53.2,49.1,30.14,West,276,15.0,15.0,86,0.00,,,0.00,Wunderground v.1.15,2013-06-09 07:15:00,
2013-06-09 00:20:00,53.1,49.0,30.14,West,274,14.0,14.0,86,0.00,,,0.00,Wunderground v.1.15,2013-06-09 07:20:00,
2013-06-09 00:25:00,53.0,48.9,30.14,WNW,300,12.0,14.0,86,0.00,,,0.00,Wunderground v.1.15,2013-06-09 07:25:00,
2013-06-09 00:30:00,53.3,49.2,30.14,WNW,286,11.0,13.0,86,0.00,,,0.00,Wunderground v.1.15,2013-06-09 07:30:00,
2013-06-09 00:35:00,53.5,49.1,30.14,WNW,283,13.0,16.0,85,0.00,,,0.00,Wunderground v.1.15,2013-06-09 07:35:00,
2013-06-09 00:40:00,53.6,48.9,30.14,West,271,14.0,14.0,84,0.00,,,0.00,Wunderground v.1.15,2013-06-09 07:40:00,
2013-06-09 00:45:00,53.5,48.5,30.14,West,266,14.0,14.0,83,0.00,,,0.00,Wunderground v.1.15,2013-06-09 07:45:00,
2013-06-09 00:50:00,53.6,48.6,30.14,West,281,14.0,15.0,83,0.00,,,0.00,Wunderground v.1.15,2013-06-09 07:50:00,
2013-06-09 00:55:00,53.7,49.0,30.14,West,263,12.0,15.0,84,0.00,,,0.00,Wunderground v.1.15,2013-06-09 07:55:00,
2013-06-09 01:00:00,53.7,49.0,30.14,WSW,255,11.0,12.0,84,0.00,,,0.00,Wunderground v.1.15,2013-06-09 08:00:00,
2013-06-09 01:05:00,53.7,48.7,30.14,WNW,285,11.0,16.0,83,0.00,,,0.00,Wunderground v.1.15,2013-06-09 08:05:00,
2013-06-09 01:10:00,53.6,48.2,30.14,WNW,286,11.0,11.0,82,0.00,,,0.00,Wunderground v.1.15,2013-06-09 08:10:00,
2013-06-09 01:15:00,53.6,48.6,30.14,West,267,11.0,12.0,83,0.00,,,0.00,Wunderground v.1.15,2013-06-09 08:15:00,
2013-06-09 01:20:00,53.6,48.9,30.14,West,270,11.0,14.0,84,0.00,,,0.00,Wunderground v.1.15,2013-06-09 08:20:00,
2013-06-09 01:25:00,53.5,48.5,30.14,WSW,254,12.0,14.0,83,0.00,,,0.00,Wunderground v.1.15,2013-06-09 08:25:00,
2013-06-09 01:30:00,53.5,48.5,30.14,WSW,247,13.0,13.0,83,0.00,,,0.00,Wunderground v.1.15,2013-06-09 08:30:00,
2013-06-09 01:40:00,53.3,48.3,30.14,West,279,13.0,13.0,83,0.00,,,0.00,Wunderground v.1.15,2013-06-09 08:40:00,
2013-06-09 01:45:00,53.3,48.3,30.14,West,267,12.0,13.0,83,0.00,,,0.00,Wunderground v.1.15,2013-06-09 08:45:00,
2013-06-09 01:50:00,53.3,48.6,30.14,West,271,12.0,12.0,84,0.00,,,0.00,Wunderground v.1.15,2013-06-09 08:50:00,
2013-06-09 01:55:00,53.3,48.6,30.14,West,268,12.0,12.0,84,0.00,,,0.00,Wunderground v.1.15,2013-06-09 08:55:00,
2013-06-09 02:00:00,53.0,47.7,30.14,West,269,11.0,12.0,82,0.00,,,0.00,Wunderground v.1.15,2013-06-09 09:00:00,
2013-06-09 02:05:00,53.3,48.6,30.13,West,261,10.0,12.0,84,0.00,,,0.00,Wunderground v.1.15,2013-06-09 09:05:00,
2013-06-09 02:10:00,53.1,48.1,30.13,West,267,10.0,11.0,83,0.00,,,0.00,Wunderground v.1.15,2013-06-09 09:10:00,
2013-06-09 02:15:00,53.1,48.1,30.13,West,277,10.0,12.0,83,0.00,,,0.00,Wunderground v.1.15,2013-06-09 09:15:00,
2013-06-09 02:20:00,53.3,48.3,30.13,West,263,10.0,11.0,83,0.00,,,0.00,Wunderground v.1.15,2013-06-09 09:20:00,
2013-06-09 02:25:00,53.2,48.2,30.13,West,270,10.0,11.0,83,0.00,,,0.00,Wunderground v.1.15,2013-06-09 09:25:00,
2013-06-09 02:30:00,53.3,48.6,30.13,WNW,282,10.0,12.0,84,0.00,,,0.00,Wunderground v.1.15,2013-06-09 09:30:00,
2013-06-09 02:35:00,53.3,47.9,30.13,West,266,11.0,12.0,82,0.00,,,0.00,Wunderground v.1.15,2013-06-09 09:35:00,
2013-06-09 02:40:00,53.5,48.5,30.13,West,268,11.0,12.0,83,0.00,,,0.00,Wunderground v.1.15,2013-06-09 09:40:00,
2013-06-09 02:45:00,53.3,47.9,30.13,West,275,11.0,12.0,82,0.00,,,0.00,Wunderground v.1.15,2013-06-09 09:45:00,
2013-06-09 02:50:00,53.4,48.4,30.13,WSW,250,11.0,11.0,83,0.00,,,0.00,Wunderground v.1.15,2013-06-09 09:50:00,
2013-06-09 02:55:00,53.1,47.7,30.13,West,267,10.0,11.0,82,0.00,,,0.00,Wunderground v.1.15,2013-06-09 09:55:00,
2013-06-09 03:00:00,53.4,48.4,30.13,WNW,302,10.0,10.0,83,0.00,,,0.00,Wunderground v.1.15,2013-06-09 10:00:00,
2013-06-09 03:05:00,53.4,48.4,30.13,West,263,11.0,11.0,83,0.00,,,0.00,Wunderground v.1.15,2013-06-09 10:05:00,
2013-06-09 03:10:00,53.4,48.0,30.13,WNW,293,11.0,11.0,82,0.00,,,0.00,Wunderground v.1.15,2013-06-09 10:10:00,
2013-06-09 03:15:00,53.5,48.1,30.13,West,279,11.0,14.0,82,0.00,,,0.00,Wunderground v.1.15,2013-06-09 10:15:00,
2013-06-09 03:20:00,53.4,48.0,30.13,West,281,11.0,12.0,82,0.00,,,0.00,Wunderground v.1.15,2013-06-09 10:20:00,
2013-06-09 03:25:00,53.3,48.6,30.13,West,271,11.0,12.0,84,0.00,,,0.00,Wunderground v.1.15,2013-06-09 10:25:00,
2013-06-09 03:30:00,53.2,48.2,30.13,West,278,11.0,11.0,83,0.00,,,0.00,Wunderground v.1.15,2013-06-09 10:30:00,
2013-06-09 03:35:00,53.3,48.3,30.13,WNW,292,11.0,11.0,83,0.00,,,0.00,Wunderground v.1.15,2013-06-09 10:35:00,
2013-06-09 03:40:00,53.1,48.1,30.14,NW,304,9.0,9.0,83,0.00,,,0.00,Wunderground v.1.15,2013-06-09 10:40:00,
2013-06-09 03:45:00,52.9,47.6,30.13,WNW,290,7.0,9.0,82,0.00,,,0.00,Wunderground v.1.15,2013-06-09 10:45:00,
2013-06-09 03:50:00,52.9,47.6,30.13,WNW,284,6.0,6.0,82,0.00,,,0.00,Wunderground v.1.15,2013-06-09 10:50:00,
2013-06-09 03:55:00,52.8,47.5,30.13,West,279,6.0,7.0,82,0.00,,,0.00,Wunderground v.1.15,2013-06-09 10:55:00,
2013-06-09 04:00:00,52.7,47.4,30.13,West,277,7.0,9.0,82,0.00,,,0.00,Wunderground v.1.15,2013-06-09 11:00:00,
2013-06-09 04:05:00,52.7,47.0,30.13,NW,325,7.0,9.0,81,0.00,,,0.00,Wunderground v.1.15,2013-06-09 11:05:00,
2013-06-09 04:10:00,52.7,47.4,30.13,WNW,287,8.0,8.0,82,0.00,,,0.00,Wunderground v.1.15,2013-06-09 11:10:00,
2013-06-09 04:15:00,52.8,47.5,30.13,NW,309,7.0,8.0,82,0.00,,,0.00,Wunderground v.1.15,2013-06-09 11:15:00,
2013-06-09 04:20:00,52.8,47.8,30.13,WNW,303,6.0,7.0,83,0.00,,,0.00,Wunderground v.1.15,2013-06-09 11:20:00,
2013-06-09 04:25:00,52.9,48.2,30.12,WNW,288,7.0,8.0,84,0.00,,,0.00,Wunderground v.1.15,2013-06-09 11:25:00,
2013-06-09 04:30:00,52.7,47.4,30.13,West,281,7.0,7.0,82,0.00,,,0.00,Wunderground v.1.15,2013-06-09 11:30:00,
2013-06-09 04:40:00,52.6,47.3,30.12,WNW,295,7.0,9.0,82,0.00,,,0.00,Wunderground v.1.15,2013-06-09 11:40:00,
2013-06-09 04:45:00,52.4,47.1,30.12,NW,313,6.0,9.0,82,0.00,,,0.00,Wunderground v.1.15,2013-06-09 11:45:00,
2013-06-09 04:50:00,52.4,47.4,30.12,NW,318,5.0,6.0,83,0.00,,,0.00,Wunderground v.1.15,2013-06-09 11:50:00,
2013-06-09 04:55:00,52.9,48.5,30.12,West,281,7.0,10.0,85,0.00,,,0.00,Wunderground v.1.15,2013-06-09 11:55:00,
2013-06-09 05:00:00,52.7,47.7,30.12,WNW,292,8.0,8.0,83,0.00,,,0.00,Wunderground v.1.15,2013-06-09 12:00:00,
2013-06-09 05:05:00,52.6,47.6,30.12,NW,311,6.0,8.0,83,0.00,,,0.00,Wunderground v.1.15,2013-06-09 12:05:00,
2013-06-09 05:10:00,52.6,47.9,30.12,NW,307,6.0,8.0,84,0.00,,,0.00,Wunderground v.1.15,2013-06-09 12:10:00,
2013-06-09 05:15:00,52.8,48.1,30.12,WNW,289,8.0,12.0,84,0.00,,,0.00,Wunderground v.1.15,2013-06-09 12:15:00,
2013-06-09 05:20:00,52.6,47.6,30.12,NNW,333,8.0,8.0,83,0.00,,,0.00,Wunderground v.1.15,2013-06-09 12:20:00,
2013-06-09 05:25:00,52.6,47.6,30.12,West,271,8.0,12.0,83,0.00,,,0.00,Wunderground v.1.15,2013-06-09 12:25:00,
2013-06-09 05:30:00,52.9,47.9,30.12,West,276,9.0,12.0,83,0.00,,,0.00,Wunderground v.1.15,2013-06-09 12:30:00,
2013-06-09 05:35:00,52.8,47.5,30.12,West,275,10.0,12.0,82,0.00,,,0.00,Wunderground v.1.15,2013-06-09 12:35:00,
2013-06-09 05:40:00,52.7,47.4,30.12,WNW,296,8.0,8.0,82,0.00,,,0.00,Wunderground v.1.15,2013-06-09 12:40:00,
2013-06-09 05:45:00,52.5,47.2,30.12,NW,314,7.0,8.0,82,0.00,,,0.00,Wunderground v.1.15,2013-06-09 12:45:00,
2013-06-09 05:50:00,52.9,47.9,30.12,WNW,296,8.0,11.0,83,0.00,,,0.00,Wunderground v.1.15,2013-06-09 12:50:00,
2013-06-09 05:55:00,52.6,47.3,30.12,WNW,297,9.0,11.0,82,0.00,,,0.00,Wunderground v.1.15,2013-06-09 12:55:00,
2013-06-09 06:00:00,52.8,47.5,30.12,West,267,9.0,13.0,82,0.00,,,0.00,Wunderground v.1.15,2013-06-09 13:00:00,
2013-06-09 06:05:00,52.9,47.6,30.12,West,266,10.0,13.0,82,0.00,,,0.00,Wunderground v.1.15,2013-06-09 13:05:00,
2013-06-09 06:10:00,52.9,47.6,30.12,West,259,10.0,10.0,82,0.00,,,0.00,Wunderground v.1.15,2013-06-09 13:10:00,
2013-06-09 06:15:00,52.8,47.5,30.12,West,278,9.0,10.0,82,0.00,,,0.00,Wunderground v.1.15,2013-06-09 13:15:00,
2013-06-09 06:20:00,52.8,47.5,30.12,West,273,9.0,9.0,82,0.00,,,0.00,Wunderground v.1.15,2013-06-09 13:20:00,
2013-06-09 06:25:00,52.7,47.4,30.12,WSW,254,9.0,9.0,82,0.00,,,0.00,Wunderground v.1.15,2013-06-09 13:25:00,
2013-06-09 06:30:00,52.6,46.9,30.12,West,267,10.0,10.0,81,0.00,,,0.00,Wunderground v.1.15,2013-06-09 13:30:00,
2013-06-09 06:35:00,52.7,47.7,30.12,West,280,10.0,10.0,83,0.00,,,0.00,Wunderground v.1.15,2013-06-09 13:35:00,
2013-06-09 06:40:00,52.8,47.5,30.12,WSW,256,10.0,12.0,82,0.00,,,0.00,Wunderground v.1.15,2013-06-09 13:40:00,
2013-06-09 06:45:00,52.7,46.7,30.12,West,274,11.0,12.0,80,0.00,,,0.00,Wunderground v.1.15,2013-06-09 13:45:00,
2013-06-09 06:50:00,52.9,47.2,30.12,West,272,11.0,13.0,81,0.00,,,0.00,Wunderground v.1.15,2013-06-09 13:50:00,
2013-06-09 06:55:00,52.8,47.1,30.12,WNW,288,11.0,13.0,81,0.00,,,0.00,Wunderground v.1.15,2013-06-09 13:55:00,
2013-06-09 07:00:00,52.9,47.2,30.12,West,275,10.0,10.0,81,0.00,,,0.00,Wunderground v.1.15,2013-06-09 14:00:00,
2013-06-09 07:05:00,53.0,47.7,30.12,West,275,10.0,11.0,82,0.00,,,0.00,Wunderground v.1.15,2013-06-09 14:05:00,
2013-06-09 07:10:00,53.0,47.3,30.12,WNW,283,10.0,10.0,81,0.00,,,0.00,Wunderground v.1.15,2013-06-09 14:10:00,
2013-06-09 07:15:00,53.2,47.5,30.12,West,272,11.0,11.0,81,0.00,,,0.00,Wunderground v.1.15,2013-06-09 14:15:00,
2013-06-09 07:20:00,53.1,47.4,30.12,West,275,10.0,10.0,81,0.00,,,0.00,Wunderground v.1.15,2013-06-09 14:20:00,
2013-06-09 07:25:00,53.2,47.2,30.12,West,272,10.0,12.0,80,0.00,,,0.00,Wunderground v.1.15,2013-06-09 14:25:00,
2013-06-09 07:30:00,53.3,47.3,30.12,West,279,10.0,10.0,80,0.00,,,0.00,Wunderground v.1.15,2013-06-09 14:30:00,
2013-06-09 07:40:00,53.5,47.5,30.12,WNW,290,8.0,12.0,80,0.00,,,0.00,Wunderground v.1.15,2013-06-09 14:40:00,
2013-06-09 07:45:00,53.5,47.1,30.12,West,263,9.0,12.0,79,0.00,,,0.00,Wunderground v.1.15,2013-06-09 14:45:00,
2013-06-09 07:50:00,53.6,47.2,30.13,West,278,9.0,12.0,79,0.00,,,0.00,Wunderground v.1.15,2013-06-09 14:50:00,
2013-06-09 07:55:00,53.5,46.8,30.12,West,265,10.0,12.0,78,0.00,,,0.00,Wunderground v.1.15,2013-06-09 14:55:00,
2013-06-09 08:00:00,53.8,47.1,30.12,West,267,11.0,12.0,78,0.00,,,0.00,Wunderground v.1.15,2013-06-09 15:00:00,
2013-06-09 08:05:00,53.8,47.1,30.12,West,264,10.0,12.0,78,0.00,,,0.00,Wunderground v.1.15,2013-06-09 15:05:00,
2013-06-09 08:10:00,53.7,46.7,30.13,West,261,10.0,10.0,77,0.00,,,0.00,Wunderground v.1.15,2013-06-09 15:10:00,
2013-06-09 08:15:00,53.9,46.9,30.13,West,279,9.0,13.0,77,0.00,,,0.00,Wunderground v.1.15,2013-06-09 15:15:00,
2013-06-09 08:20:00,54.0,47.3,30.13,West,271,9.0,9.0,78,0.00,,,0.00,Wunderground v.1.15,2013-06-09 15:20:00,
2013-06-09 08:25:00,54.1,47.0,30.13,West,279,9.0,15.0,77,0.00,,,0.00,Wunderground v.1.15,2013-06-09 15:25:00,
2013-06-09 08:30:00,54.2,46.8,30.13,WNW,286,9.0,9.0,76,0.00,,,0.00,Wunderground v.1.15,2013-06-09 15:30:00,
2013-06-09 08:40:00,54.3,46.9,30.13,WNW,285,9.0,9.0,76,0.00,,,0.00,Wunderground v.1.15,2013-06-09 15:40:00,
2013-06-09 08:45:00,54.4,47.0,30.13,West,277,9.0,10.0,76,0.00,,,0.00,Wunderground v.1.15,2013-06-09 15:45:00,
2013-06-09 08:50:00,54.6,47.9,30.13,West,259,8.0,8.0,78,0.00,,,0.00,Wunderground v.1.15,2013-06-09 15:50:00,
2013-06-09 08:55:00,54.6,47.2,30.13,West,277,8.0,11.0,76,0.00,,,0.00,Wunderground v.1.15,2013-06-09 15:55:00,
2013-06-09 09:00:00,54.8,47.4,30.13,WNW,286,9.0,11.0,76,0.00,,,0.00,Wunderground v.1.15,2013-06-09 16:00:00,
2013-06-09 09:05:00,55.0,47.2,30.13,West,281,9.0,11.0,75,0.00,,,0.00,Wunderground v.1.15,2013-06-09 16:05:00,
2013-06-09 09:10:00,55.0,47.6,30.13,West,277,9.0,11.0,76,0.00,,,0.00,Wunderground v.1.15,2013-06-09 16:10:00,
2013-06-09 09:15:00,54.9,47.1,30.13,WSW,247,10.0,11.0,75,0.00,,,0.00,Wunderground v.1.15,2013-06-09 16:15:00,
2013-06-09 09:20:00,55.1,47.7,30.13,West,277,9.0,9.0,76,0.00,,,0.00,Wunderground v.1.15,2013-06-09 16:20:00,
2013-06-09 09:25:00,55.4,47.6,30.13,West,268,9.0,9.0,75,0.00,,,0.00,Wunderground v.1.15,2013-06-09 16:25:00,
2013-06-09 09:30:00,55.3,47.2,30.13,WSW,257,9.0,9.0,74,0.00,,,0.00,Wunderground v.1.15,2013-06-09 16:30:00,
2013-06-09 09:35:00,55.5,47.7,30.13,West,280,9.0,10.0,75,0.00,,,0.00,Wunderground v.1.15,2013-06-09 16:35:00,
2013-06-09 09:40:00,55.8,48.0,30.13,West,263,9.0,9.0,75,0.00,,,0.00,Wunderground v.1.15,2013-06-09 16:40:00,
2013-06-09 09:45:00,55.8,47.6,30.13,West,263,10.0,10.0,74,0.00,,,0.00,Wunderground v.1.15,2013-06-09 16:45:00,
2013-06-09 09:50:00,55.9,47.7,30.13,West,271,10.0,10.0,74,0.00,,,0.00,Wunderground v.1.15,2013-06-09 16:50:00,
2013-06-09 09:55:00,56.0,47.8,30.12,WSW,252,8.0,10.0,74,0.00,,,0.00,Wunderground v.1.15,2013-06-09 16:55:00,
2013-06-09 10:00:00,56.2,48.4,30.12,West,273,9.0,13.0,75,0.00,,,0.00,Wunderground v.1.15,2013-06-09 17:00:00,
2013-06-09 10:05:00,56.2,47.3,30.12,West,265,10.0,13.0,72,0.00,,,0.00,Wunderground v.1.15,2013-06-09 17:05:00,
2013-06-09 10:10:00,56.3,47.4,30.12,WSW,251,10.0,10.0,72,0.00,,,0.00,Wunderground v.1.15,2013-06-09 17:10:00,
2013-06-09 10:15:00,56.7,48.5,30.12,West,259,8.0,10.0,74,0.00,,,0.00,Wunderground v.1.15,2013-06-09 17:15:00,
2013-06-09 10:20:00,56.9,47.6,30.12,WNW,294,8.0,8.0,71,0.00,,,0.00,Wunderground v.1.15,2013-06-09 17:20:00,
2013-06-09 10:25:00,57.0,48.1,30.12,West,271,8.0,11.0,72,0.00,,,0.00,Wunderground v.1.15,2013-06-09 17:25:00,
2013-06-09 10:30:00,57.0,47.7,30.12,West,265,9.0,9.0,71,0.00,,,0.00,Wunderground v.1.15,2013-06-09 17:30:00,
2013-06-09 10:35:00,57.4,48.8,30.12,West,262,9.0,10.0,73,0.00,,,0.00,Wunderground v.1.15,2013-06-09 17:35:00,
2013-06-09 10:40:00,57.5,48.9,30.12,NW,309,8.0,8.0,73,0.00,,,0.00,Wunderground v.1.15,2013-06-09 17:40:00,
2013-06-09 10:45:00,57.8,48.5,30.12,WNW,288,8.0,11.0,71,0.00,,,0.00,Wunderground v.1.15,2013-06-09 17:45:00,
2013-06-09 10:55:00,57.8,48.1,30.11,West,267,9.0,11.0,70,0.00,,,0.00,Wunderground v.1.15,2013-06-09 17:55:00,
2013-06-09 11:00:00,57.9,47.4,30.12,West,277,10.0,10.0,68,0.00,,,0.00,Wunderground v.1.15,2013-06-09 18:00:00,
2013-06-09 11:05:00,57.9,48.2,30.11,West,261,10.0,14.0,70,0.00,,,0.00,Wunderground v.1.15,2013-06-09 18:05:00,
2013-06-09 11:10:00,58.1,48.0,30.12,West,260,9.0,11.0,69,0.00,,,0.00,Wunderground v.1.15,2013-06-09 18:10:00,
2013-06-09 11:15:00,58.2,48.1,30.12,WNW,289,9.0,11.0,69,0.00,,,0.00,Wunderground v.1.15,2013-06-09 18:15:00,
2013-06-09 11:20:00,58.4,48.3,30.12,West,266,9.0,9.0,69,0.00,,,0.00,Wunderground v.1.15,2013-06-09 18:20:00,
2013-06-09 11:25:00,58.5,48.4,30.12,West,273,9.0,11.0,69,0.00,,,0.00,Wunderground v.1.15,2013-06-09 18:25:00,
2013-06-09 11:30:00,59.1,48.1,30.12,West,261,9.0,13.0,67,0.00,,,0.00,Wunderground v.1.15,2013-06-09 18:30:00,
2013-06-09 11:35:00,59.7,48.3,30.12,West,281,9.0,13.0,66,0.00,,,0.00,Wunderground v.1.15,2013-06-09 18:35:00,
2013-06-09 11:40:00,59.2,48.2,30.12,West,262,8.0,8.0,67,0.00,,,0.00,Wunderground v.1.15,2013-06-09 18:40:00,
2013-06-09 11:45:00,59.3,47.5,30.12,NW,306,7.0,8.0,65,0.00,,,0.00,Wunderground v.1.15,2013-06-09 18:45:00,
2013-06-09 11:50:00,59.4,47.6,30.11,WSW,255,9.0,13.0,65,0.00,,,0.00,Wunderground v.1.15,2013-06-09 18:50:00,
2013-06-09 11:55:00,59.5,47.7,30.11,WNW,292,10.0,13.0,65,0.00,,,0.00,Wunderground v.1.15,2013-06-09 18:55:00,
2013-06-09 12:00:00,59.8,48.4,30.11,West,264,10.0,10.0,66,0.00,,,0.00,Wunderground v.1.15,2013-06-09 19:00:00,
2013-06-09 12:05:00,59.9,47.7,30.11,West,261,10.0,10.0,64,0.00,,,0.00,Wunderground v.1.15,2013-06-09 19:05:00,
2013-06-09 12:10:00,59.9,48.5,30.11,West,273,9.0,9.0,66,0.00,,,0.00,Wunderground v.1.15,2013-06-09 19:10:00,
2013-06-09 12:15:00,59.9,46.8,30.11,WSW,246,9.0,11.0,62,0.00,,,0.00,Wunderground v.1.15,2013-06-09 19:15:00,
2013-06-09 12:20:00,60.0,47.4,30.11,West,270,10.0,10.0,63,0.00,,,0.00,Wunderground v.1.15,2013-06-09 19:20:00,
2013-06-09 12:25:00,60.2,48.4,30.11,WNW,282,11.0,14.0,65,0.00,,,0.00,Wunderground v.1.15,2013-06-09 19:25:00,
2013-06-09 12:30:00,60.1,47.9,30.11,WSW,250,11.0,12.0,64,0.00,,,0.00,Wunderground v.1.15,2013-06-09 19:30:00,
2013-06-09 12:35:00,60.1,47.5,30.11,West,281,11.0,12.0,63,0.00,,,0.00,Wunderground v.1.15,2013-06-09 19:35:00,
2013-06-09 12:45:00,60.5,49.1,30.11,WNW,294,9.0,15.0,66,0.00,,,0.00,Wunderground v.1.15,2013-06-09 19:45:00,
2013-06-09 12:50:00,60.5,49.5,30.11,West,273,11.0,12.0,67,0.00,,,0.00,Wunderground v.1.15,2013-06-09 19:50:00,
2013-06-09 12:55:00,60.3,48.1,30.11,WSW,248,12.0,12.0,64,0.00,,,0.00,Wunderground v.1.15,2013-06-09 19:55:00,
2013-06-09 13:00:00,60.3,48.1,30.11,West,275,11.0,13.0,64,0.00,,,0.00,Wunderground v.1.15,2013-06-09 20:00:00,
2013-06-09 13:05:00,60.2,48.0,30.10,West,261,11.0,13.0,64,0.00,,,0.00,Wunderground v.1.15,2013-06-09 20:05:00,
2013-06-09 13:10:00,60.2,47.6,30.10,West,271,11.0,11.0,63,0.00,,,0.00,Wunderground v.1.15,2013-06-09 20:10:00,
2013-06-09 13:15:00,60.4,48.6,30.10,WNW,282,12.0,12.0,65,0.00,,,0.00,Wunderground v.1.15,2013-06-09 20:15:00,
2013-06-09 13:20:00,60.2,48.4,30.11,West,260,13.0,13.0,65,0.00,,,0.00,Wunderground v.1.15,2013-06-09 20:20:00,
2013-06-09 13:25:00,60.2,48.8,30.10,WSW,257,13.0,16.0,66,0.00,,,0.00,Wunderground v.1.15,2013-06-09 20:25:00,
2013-06-09 13:30:00,60.0,48.2,30.10,WNW,292,12.0,13.0,65,0.00,,,0.00,Wunderground v.1.15,2013-06-09 20:30:00,
2013-06-09 13:40:00,60.0,49.0,30.10,WNW,290,13.0,16.0,67,0.00,,,0.00,Wunderground v.1.15,2013-06-09 20:40:00,
2013-06-09 13:45:00,60.0,48.2,30.10,West,276,13.0,16.0,65,0.00,,,0.00,Wunderground v.1.15,2013-06-09 20:45:00,
2013-06-09 13:50:00,59.9,48.1,30.10,West,261,12.0,12.0,65,0.00,,,0.00,Wunderground v.1.15,2013-06-09 20:50:00,
2013-06-09 13:55:00,59.9,48.5,30.10,West,263,11.0,12.0,66,0.00,,,0.00,Wunderground v.1.15,2013-06-09 20:55:00,
2013-06-09 14:00:00,60.1,49.5,30.10,WNW,298,11.0,11.0,68,0.00,,,0.00,Wunderground v.1.15,2013-06-09 21:00:00,
2013-06-09 14:05:00,60.2,49.6,30.10,WSW,249,12.0,12.0,68,0.00,,,0.00,Wunderground v.1.15,2013-06-09 21:05:00,
2013-06-09 14:10:00,60.1,49.1,30.10,West,275,12.0,14.0,67,0.00,,,0.00,Wunderground v.1.15,2013-06-09 21:10:00,
2013-06-09 14:15:00,60.0,49.0,30.10,WNW,288,12.0,14.0,67,0.00,,,0.00,Wunderground v.1.15,2013-06-09 21:15:00,
2013-06-09 14:25:00,59.9,49.7,30.10,WSW,258,13.0,15.0,69,0.00,,,0.00,Wunderground v.1.15,2013-06-09 21:25:00,
2013-06-09 14:30:00,59.9,50.1,30.10,West,266,14.0,14.0,70,0.00,,,0.00,Wunderground v.1.15,2013-06-09 21:30:00,
2013-06-09 14:35:00,59.8,50.8,30.10,West,281,14.0,17.0,72,0.00,,,0.00,Wunderground v.1.15,2013-06-09 21:35:00,
2013-06-09 14:40:00,59.4,49.6,30.10,West,275,15.0,15.0,70,0.00,,,0.00,Wunderground v.1.15,2013-06-09 21:40:00,
2013-06-09 14:45:00,59.6,49.0,30.09,West,281,15.0,15.0,68,0.00,,,0.00,Wunderground v.1.15,2013-06-09 21:45:00,
2013-06-09 14:50:00,59.7,49.9,30.09,West,261,14.0,14.0,70,0.00,,,0.00,Wunderground v.1.15,2013-06-09 21:50:00,
2013-06-09 14:55:00,59.6,49.8,30.09,WNW,290,13.0,15.0,70,0.00,,,0.00,Wunderground v.1.15,2013-06-09 21:55:00,
2013-06-09 15:00:00,59.8,48.0,30.09,West,274,13.0,16.0,65,0.00,,,0.00,Wunderground v.1.15,2013-06-09 22:00:00,
2013-06-09 15:05:00,59.9,50.1,30.09,WNW,294,14.0,16.0,70,0.00,,,0.00,Wunderground v.1.15,2013-06-09 22:05:00,
2013-06-09 15:10:00,60.2,48.8,30.09,WNW,292,13.0,13.0,66,0.00,,,0.00,Wunderground v.1.15,2013-06-09 22:10:00,
2013-06-09 15:15:00,60.0,48.2,30.09,West,281,12.0,13.0,65,0.00,,,0.00,Wunderground v.1.15,2013-06-09 22:15:00,
2013-06-09 15:20:00,60.0,49.0,30.09,WNW,298,12.0,15.0,67,0.00,,,0.00,Wunderground v.1.15,2013-06-09 22:20:00,
2013-06-09 15:25:00,60.2,49.2,30.09,West,264,12.0,15.0,67,0.00,,,0.00,Wunderground v.1.15,2013-06-09 22:25:00,
2013-06-09 15:30:00,60.1,49.9,30.09,West,279,12.0,12.0,69,0.00,,,0.00,Wunderground v.1.15,2013-06-09 22:30:00,
2013-06-09 15:35:00,60.0,49.0,30.09,West,278,13.0,14.0,67,0.00,,,0.00,Wunderground v.1.15,2013-06-09 22:35:00,
2013-06-09 15:40:00,60.1,50.3,30.09,West,276,14.0,16.0,70,0.00,,,0.00,Wunderground v.1.15,2013-06-09 22:40:00,
2013-06-09 15:45:00,60.0,49.0,30.09,West,265,13.0,16.0,67,0.00,,,0.00,Wunderground v.1.15,2013-06-09 22:45:00,
2013-06-09 15:50:00,59.7,48.7,30.09,WNW,300,12.0,12.0,67,0.00,,,0.00,Wunderground v.1.15,2013-06-09 22:50:00,
2013-06-09 15:55:00,60.3,48.9,30.08,WNW,286,11.0,13.0,66,0.00,,,0.00,Wunderground v.1.15,2013-06-09 22:55:00,
2013-06-09 16:00:00,60.3,48.9,30.09,WNW,282,11.0,16.0,66,0.00,,,0.00,Wunderground v.1.15,2013-06-09 23:00:00,
2013-06-09 16:05:00,60.1,49.5,30.09,West,272,12.0,16.0,68,0.00,,,0.00,Wunderground v.1.15,2013-06-09 23:05:00,
2013-06-09 16:10:00,60.3,49.7,30.08,WNW,295,12.0,12.0,68,0.00,,,0.00,Wunderground v.1.15,2013-06-09 23:10:00,
2013-06-09 16:15:00,60.1,49.9,30.09,WNW,286,13.0,13.0,69,0.00,,,0.00,Wunderground v.1.15,2013-06-09 23:15:00,
2013-06-09 16:20:00,59.6,48.6,30.08,WNW,302,13.0,17.0,67,0.00,,,0.00,Wunderground v.1.15,2013-06-09 23:20:00,
2013-06-09 16:25:00,59.6,49.4,30.08,West,279,14.0,17.0,69,0.00,,,0.00,Wunderground v.1.15,2013-06-09 23:25:00,
2013-06-09 16:30:00,60.2,48.8,30.08,WNW,290,12.0,12.0,66,0.00,,,0.00,Wunderground v.1.15,2013-06-09 23:30:00,
2013-06-09 16:35:00,59.6,49.8,30.08,WNW,290,12.0,13.0,70,0.00,,,0.00,Wunderground v.1.15,2013-06-09 23:35:00,
2013-06-09 16:40:00,59.8,49.6,30.08,WNW,291,13.0,13.0,69,0.00,,,0.00,Wunderground v.1.15,2013-06-09 23:40:00,
2013-06-09 16:45:00,59.7,49.1,30.08,West,272,12.0,14.0,68,0.00,,,0.00,Wunderground v.1.15,2013-06-09 23:45:00,
2013-06-09 16:50:00,59.5,48.9,30.08,WNW,284,12.0,12.0,68,0.00,,,0.00,Wunderground v.1.15,2013-06-09 23:50:00,
2013-06-09 16:55:00,59.3,49.5,30.08,West,275,13.0,14.0,70,0.00,,,0.00,Wunderground v.1.15,2013-06-09 23:55:00,
2013-06-09 17:00:00,59.4,49.6,30.08,West,277,13.0,13.0,70,0.00,,,0.00,Wunderground v.1.15,2013-06-10 00:00:00,
2013-06-09 17:05:00,59.5,48.9,30.08,West,280,12.0,20.0,68,0.00,,,0.00,Wunderground v.1.15,2013-06-10 00:05:00,
2013-06-09 17:10:00,59.3,48.7,30.08,West,275,13.0,13.0,68,0.00,,,0.00,Wunderground v.1.15,2013-06-10 00:10:00,
2013-06-09 17:15:00,58.9,48.4,30.08,West,281,14.0,16.0,68,0.00,,,0.00,Wunderground v.1.15,2013-06-10 00:15:00,
2013-06-09 17:25:00,58.5,49.1,30.08,West,277,13.0,15.0,71,0.00,,,0.00,Wunderground v.1.15,2013-06-10 00:25:00,
2013-06-09 17:30:00,58.6,48.8,30.08,WNW,301,12.0,12.0,70,0.00,,,0.00,Wunderground v.1.15,2013-06-10 00:30:00,
2013-06-09 17:35:00,58.3,48.6,30.08,West,281,14.0,14.0,70,0.00,,,0.00,Wunderground v.1.15,2013-06-10 00:35:00,
2013-06-09 17:40:00,58.5,48.4,30.08,WNW,285,14.0,15.0,69,0.00,,,0.00,Wunderground v.1.15,2013-06-10 00:40:00,
2013-06-09 17:45:00,58.2,48.1,30.08,West,281,14.0,15.0,69,0.00,,,0.00,Wunderground v.1.15,2013-06-10 00:45:00,
2013-06-09 17:50:00,58.2,48.5,30.08,West,275,14.0,14.0,70,0.00,,,0.00,Wunderground v.1.15,2013-06-10 00:50:00,
2013-06-09 17:55:00,58.0,47.9,30.08,WNW,294,13.0,14.0,69,0.00,,,0.00,Wunderground v.1.15,2013-06-10 00:55:00,
2013-06-09 18:00:00,58.2,48.8,30.08,WNW,287,13.0,13.0,71,0.00,,,0.00,Wunderground v.1.15,2013-06-10 01:00:00,
2013-06-09 18:10:00,58.3,49.3,30.08,WNW,284,12.0,15.0,72,0.00,,,0.00,Wunderground v.1.15,2013-06-10 01:10:00,
2013-06-09 18:15:00,57.8,48.1,30.08,WNW,290,13.0,15.0,70,0.00,,,0.00,Wunderground v.1.15,2013-06-10 01:15:00,
2013-06-09 18:20:00,57.9,48.6,30.07,West,265,14.0,17.0,71,0.00,,,0.00,Wunderground v.1.15,2013-06-10 01:20:00,
2013-06-09 18:25:00,57.7,49.1,30.07,WNW,282,14.0,17.0,73,0.00,,,0.00,Wunderground v.1.15,2013-06-10 01:25:00,
2013-06-09 18:30:00,57.4,47.3,30.07,West,269,14.0,14.0,69,0.00,,,0.00,Wunderground v.1.15,2013-06-10 01:30:00,
2013-06-09 18:35:00,57.5,48.9,30.07,West,262,13.0,16.0,73,0.00,,,0.00,Wunderground v.1.15,2013-06-10 01:35:00,
2013-06-09 18:40:00,57.6,48.3,30.07,WNW,294,12.0,12.0,71,0.00,,,0.00,Wunderground v.1.15,2013-06-10 01:40:00,
2013-06-09 18:45:00,57.7,48.0,30.07,West,276,12.0,12.0,70,0.00,,,0.00,Wunderground v.1.15,2013-06-10 01:45:00,
2013-06-09 18:50:00,57.5,48.5,30.07,WNW,300,12.0,12.0,72,0.00,,,0.00,Wunderground v.1.15,2013-06-10 01:50:00,
2013-06-09 18:55:00,57.2,47.1,30.07,West,267,13.0,13.0,69,0.00,,,0.00,Wunderground v.1.15,2013-06-10 01:55:00,
2013-06-09 19:00:00,57.1,47.8,30.07,West,269,13.0,13.0,71,0.00,,,0.00,Wunderground v.1.15,2013-06-10 02:00:00,
2013-06-09 19:05:00,57.2,47.1,30.07,West,277,11.0,14.0,69,0.00,,,0.00,Wunderground v.1.15,2013-06-10 02:05:00,
2013-06-09 19:10:00,57.1,47.0,30.07,West,274,12.0,12.0,69,0.00,,,0.00,Wunderground v.1.15,2013-06-10 02:10:00,
2013-06-09 19:15:00,57.3,48.3,30.07,WSW,252,12.0,12.0,72,0.00,,,0.00,Wunderground v.1.15,2013-06-10 02:15:00,
2013-06-09 19:20:00,57.1,47.0,30.07,West,271,11.0,11.0,69,0.00,,,0.00,Wunderground v.1.15,2013-06-10 02:20:00,
2013-06-09 19:25:00,56.9,46.4,30.07,West,263,11.0,11.0,68,0.00,,,0.00,Wunderground v.1.15,2013-06-10 02:25:00,
2013-06-09 19:30:00,56.6,46.9,30.07,West,269,12.0,14.0,70,0.00,,,0.00,Wunderground v.1.15,2013-06-10 02:30:00,
2013-06-09 19:35:00,56.7,47.8,30.07,West,271,12.0,14.0,72,0.00,,,0.00,Wunderground v.1.15,2013-06-10 02:35:00,
2013-06-09 19:40:00,56.4,46.4,30.07,NW,317,12.0,12.0,69,0.00,,,0.00,Wunderground v.1.15,2013-06-10 02:40:00,
2013-06-09 19:45:00,56.2,46.9,30.07,WNW,284,12.0,12.0,71,0.00,,,0.00,Wunderground v.1.15,2013-06-10 02:45:00,
2013-06-09 19:50:00,56.2,46.5,30.07,West,275,11.0,11.0,70,0.00,,,0.00,Wunderground v.1.15,2013-06-10 02:50:00,
2013-06-09 19:55:00,56.0,47.1,30.07,WNW,282,10.0,11.0,72,0.00,,,0.00,Wunderground v.1.15,2013-06-10 02:55:00,
2013-06-09 20:00:00,55.7,46.8,30.07,West,279,11.0,12.0,72,0.00,,,0.00,Wunderground v.1.15,2013-06-10 03:00:00,
2013-06-09 20:10:00,55.4,47.2,30.07,West,275,10.0,11.0,74,0.00,,,0.00,Wunderground v.1.15,2013-06-10 03:10:00,
2013-06-09 20:15:00,55.1,46.2,30.07,WNW,282,10.0,11.0,72,0.00,,,0.00,Wunderground v.1.15,2013-06-10 03:15:00,
2013-06-09 20:20:00,54.9,46.4,30.07,West,272,11.0,11.0,73,0.00,,,0.00,Wunderground v.1.15,2013-06-10 03:20:00,
2013-06-09 20:25:00,54.8,46.7,30.07,West,265,12.0,15.0,74,0.00,,,0.00,Wunderground v.1.15,2013-06-10 03:25:00,
2013-06-09 20:30:00,54.6,46.5,30.06,West,279,12.0,14.0,74,0.00,,,0.00,Wunderground v.1.15,2013-06-10 03:30:00,
2013-06-09 20:35:00,54.4,46.6,30.07,WNW,292,13.0,15.0,75,0.00,,,0.00,Wunderground v.1.15,2013-06-10 03:35:00,
2013-06-09 20:40:00,54.2,46.8,30.07,WNW,287,12.0,15.0,76,0.00,,,0.00,Wunderground v.1.15,2013-06-10 03:40:00,
2013-06-09 20:45:00,54.2,46.8,30.07,West,278,12.0,15.0,76,0.00,,,0.00,Wunderground v.1.15,2013-06-10 03:45:00,
2013-06-09 20:50:00,53.9,46.2,30.07,WNW,287,13.0,13.0,75,0.00,,,0.00,Wunderground v.1.15,2013-06-10 03:50:00,
2013-06-09 20:55:00,53.8,46.8,30.07,West,259,13.0,13.0,77,0.00,,,0.00,Wunderground v.1.15,2013-06-10 03:55:00,
2013-06-09 21:00:00,53.7,47.0,30.06,West,276,12.0,12.0,78,0.00,,,0.00,Wunderground v.1.15,2013-06-10 04:00:00,
2013-06-09 21:05:00,53.4,46.0,30.06,West,265,13.0,13.0,76,0.00,,,0.00,Wunderground v.1.15,2013-06-10 04:05:00,
2013-06-09 21:10:00,53.3,46.3,30.07,West,272,13.0,13.0,77,0.00,,,0.00,Wunderground v.1.15,2013-06-10 04:10:00,
2013-06-09 21:15:00,53.1,46.1,30.07,WSW,248,12.0,13.0,77,0.00,,,0.00,Wunderground v.1.15,2013-06-10 04:15:00,
2013-06-09 21:25:00,53.0,46.7,30.07,West,268,12.0,12.0,79,0.00,,,0.00,Wunderground v.1.15,2013-06-10 04:25:00,
2013-06-09 21:30:00,52.8,46.5,30.07,WNW,287,11.0,13.0,79,0.00,,,0.00,Wunderground v.1.15,2013-06-10 04:30:00,
2013-06-09 21:35:00,52.7,46.4,30.07,West,263,11.0,13.0,79,0.00,,,0.00,Wunderground v.1.15,2013-06-10 04:35:00,
2013-06-09 21:40:00,52.6,46.3,30.07,West,261,11.0,14.0,79,0.00,,,0.00,Wunderground v.1.15,2013-06-10 04:40:00,
2013-06-09 21:50:00,52.3,46.3,30.07,West,261,10.0,10.0,80,0.00,,,0.00,Wunderground v.1.15,2013-06-10 04:50:00,
2013-06-09 21:55:00,52.2,46.2,30.07,West,260,11.0,11.0,80,0.00,,,0.00,Wunderground v.1.15,2013-06-10 04:55:00,
2013-06-09 22:00:00,52.1,46.1,30.07,WSW,258,12.0,12.0,80,0.00,,,0.00,Wunderground v.1.15,2013-06-10 05:00:00,
2013-06-09 22:05:00,52.2,46.5,30.07,WSW,253,11.0,12.0,81,0.00,,,0.00,Wunderground v.1.15,2013-06-10 05:05:00,
2013-06-09 22:10:00,52.0,46.0,30.07,West,281,11.0,14.0,80,0.00,,,0.00,Wunderground v.1.15,2013-06-10 05:10:00,
2013-06-09 22:15:00,52.0,46.3,30.07,West,268,12.0,14.0,81,0.00,,,0.00,Wunderground v.1.15,2013-06-10 05:15:00,
2013-06-09 22:25:00,52.0,46.0,30.07,West,259,13.0,16.0,80,0.00,,,0.00,Wunderground v.1.15,2013-06-10 05:25:00,
2013-06-09 22:30:00,52.1,46.4,30.07,West,273,13.0,15.0,81,0.00,,,0.00,Wunderground v.1.15,2013-06-10 05:30:00,
2013-06-09 22:35:00,52.2,46.2,30.07,West,273,14.0,15.0,80,0.00,,,0.00,Wunderground v.1.15,2013-06-10 05:35:00,
2013-06-09 22:40:00,51.9,45.9,30.07,West,281,13.0,13.0,80,0.00,,,0.00,Wunderground v.1.15,2013-06-10 05:40:00,
2013-06-09 22:45:00,51.8,46.2,30.07,West,267,12.0,13.0,81,0.00,,,0.00,Wunderground v.1.15,2013-06-10 05:45:00,
2013-06-09 22:50:00,51.8,46.2,30.07,WSW,255,12.0,12.0,81,0.00,,,0.00,Wunderground v.1.15,2013-06-10 05:50:00,
2013-06-09 22:55:00,51.9,46.6,30.07,West,265,11.0,12.0,82,0.00,,,0.00,Wunderground v.1.15,2013-06-10 05:55:00,
2013-06-09 23:00:00,51.8,46.2,30.07,WNW,289,10.0,14.0,81,0.00,,,0.00,Wunderground v.1.15,2013-06-10 06:00:00,
2013-06-09 23:05:00,51.7,46.1,30.07,WNW,292,11.0,14.0,81,0.00,,,0.00,Wunderground v.1.15,2013-06-10 06:05:00,
2013-06-09 23:10:00,51.7,46.4,30.07,WNW,286,11.0,11.0,82,0.00,,,0.00,Wunderground v.1.15,2013-06-10 06:10:00,
2013-06-09 23:15:00,51.9,46.9,30.07,West,270,11.0,13.0,83,0.00,,,0.00,Wunderground v.1.15,2013-06-10 06:15:00,
2013-06-09 23:20:00,51.7,46.1,30.07,West,271,11.0,11.0,81,0.00,,,0.00,Wunderground v.1.15,2013-06-10 06:20:00,
2013-06-09 23:25:00,51.6,46.0,30.07,West,277,11.0,11.0,81,0.00,,,0.00,Wunderground v.1.15,2013-06-10 06:25:00,
2013-06-09 23:30:00,51.7,46.4,30.07,West,278,11.0,12.0,82,0.00,,,0.00,Wunderground v.1.15,2013-06-10 06:30:00,
2013-06-09 23:35:00,51.7,46.4,30.07,West,263,12.0,12.0,82,0.00,,,0.00,Wunderground v.1.15,2013-06-10 06:35:00,
2013-06-09 23:40:00,51.6,46.3,30.07,WNW,283,13.0,13.0,82,0.00,,,0.00,Wunderground v.1.15,2013-06-10 06:40:00,
2013-06-09 23:45:00,51.5,45.9,30.07,West,271,12.0,13.0,81,0.00,,,0.00,Wunderground v.1.15,2013-06-10 06:45:00,
2013-06-09 23:50:00,51.7,46.7,30.07,West,265,11.0,11.0,83,0.00,,,0.00,Wunderground v.1.15,2013-06-10 06:50:00,
2013-06-09 23:55:00,51.5,45.9,30.07,West,259,11.0,11.0,81,0.00,,,0.00,Wunderground v.1.15,2013-06-10 06:55:00,